Vancouver, British Columbia

11:31 PM PDT on August 16, 2017 (GMT -0700)
Vancouver International Airport

Weather History for CYVR - May, 2014

Change the Weather History Date:

Sunday, May 4, 2014

  Actual Average Record
Temperature  
Mean Temperature 50 °F -  
Max Temperature 52 °F 62 °F 67 °F (2017)
Min Temperature 48 °F 47 °F 42 °F (1999)
Degree Days  
Heating Degree Days 15    
Moisture  
Dew Point 47 °F    
Average Humidity 91    
Maximum Humidity 100    
Minimum Humidity 80    
Precipitation  
Precipitation 0.31 in 0.08 in - ()
Sea Level Pressure  
Sea Level Pressure 29.76 in    
Wind  
Wind Speed 10 mph ()    
Max Wind Speed 15 mph    
Max Gust Speed 22 mph    
Visibility 8.5 miles    
Events Rain    
Averages and records for this station are not official NWS values.
T = Trace of Precipitation, MM = Missing Value Source: Averaged Metar Reports

Daily Weather History Graph

Daily Weather History Graph

Search for Another Location

Airport or City:

Trip Planner

Search our weather history database for the weather conditions in past years. The results will help you decide how hot, cold, wet, or windy it might be!

Date:

Astronomy

May. 04, 2014 Rise Set
Actual Time 5:46 AM PDT 8:33 PM PDT
Civil Twilight 5:09 AM PDT 9:10 PM PDT
Nautical Twilight 4:23 AM PDT 9:57 PM PDT
Astronomical Twilight 3:27 AM PDT 10:53 PM PDT
Moon 10:13 AM PDT (5/4) 12:44 AM PDT (5/4)
Length of Visible Light 16h 00m
Length of Day
14h 47m
Waxing Crescent, 28% of the Moon is Illuminated
May 4
Waxing Crescent
May 6
First Quarter
May 14
Full
May 21
Last Quarter
May 28
New

Hourly Weather History & Observations

Time (PDT) Temp. Dew Point Humidity Pressure Visibility Wind Dir Wind Speed Gust Speed Precip Events Conditions
12:00 AM 51.8 °F 46.4 °F 82% 29.72 in 12.0 mi East 13.8 mph - N/A   Overcast
1:00 AM 51.8 °F 46.4 °F 82% 29.73 in 12.0 mi ENE 9.2 mph - N/A Rain Light Rain Showers
2:00 AM 50.0 °F 46.4 °F 87% 29.72 in 10.0 mi East 9.2 mph - N/A Rain Light Rain Showers
3:00 AM 50.0 °F 48.2 °F 94% 29.72 in 8.0 mi ESE 9.2 mph - N/A Rain Light Rain
3:48 AM 48.2 °F 46.4 °F 93% 29.72 in 6.0 mi ENE 11.5 mph 19.6 mph N/A Rain Light Rain
4:00 AM 48.2 °F 46.4 °F 93% 29.73 in 5.0 mi East 12.7 mph 18.4 mph N/A Rain Light Rain
4:21 AM 50.0 °F 46.4 °F 87% 29.73 in 5.0 mi SE 13.8 mph - N/A Rain Light Rain
5:00 AM 49 °F 48 °F 93% 29.73 in 5 mi East 9.2 mph - - Rain Light Rain
5:00 AM 48.2 °F 48.2 °F 100% 29.73 in 5.0 mi East 10.4 mph - N/A Rain Light Rain
5:49 AM 48.2 °F 48.2 °F 100% 29.73 in 3.0 mi East 6.9 mph - N/A Rain Rain
6:00 AM 48.2 °F 46.4 °F 93% 29.73 in 3.0 mi ENE 8.1 mph - N/A Rain Rain
6:08 AM 48.2 °F 46.4 °F 93% 29.73 in 4.0 mi ENE 11.5 mph - N/A Rain Light Rain
6:47 AM 48.2 °F 46.4 °F 93% 29.73 in 4.0 mi NE 8.1 mph - N/A   Overcast
6:55 AM 48.2 °F 46.4 °F 93% 29.73 in 4.0 mi ENE 6.9 mph - N/A Rain Light Rain
7:00 AM 48.2 °F 46.4 °F 93% 29.73 in 4.0 mi ENE 9.2 mph - N/A Rain Light Rain
8:00 AM 48.2 °F 46.4 °F 93% 29.73 in 6.0 mi ENE 10.4 mph - N/A Rain Light Rain
8:49 AM 48.2 °F 46.4 °F 93% 29.74 in 10.0 mi ENE 10.4 mph - N/A   Overcast
9:00 AM 50.0 °F 48.2 °F 94% 29.74 in 10.0 mi ENE 10.4 mph - N/A   Overcast
9:27 AM 50.0 °F 46.4 °F 87% 29.74 in 6.0 mi ENE 12.7 mph - N/A   Light Drizzle
10:00 AM 48.2 °F 46.4 °F 93% 29.74 in 3.0 mi ENE 12.7 mph - N/A   Light Drizzle
11:00 AM 50 °F 48 °F 90% 29.75 in 10 mi East 12.7 mph - - Rain Light Drizzle
11:00 AM 50.0 °F 48.2 °F 94% 29.75 in 10.0 mi East 13.8 mph - N/A   Light Drizzle
11:09 AM 50.0 °F 48.2 °F 94% 29.75 in 10.0 mi ENE 15.0 mph 21.9 mph N/A Rain Light Rain
11:48 AM 50.0 °F 48.2 °F 94% 29.75 in 3.0 mi ENE 12.7 mph - N/A Rain Light Rain
12:00 PM 50.0 °F 48.2 °F 94% 29.75 in 4.0 mi ENE 11.5 mph - N/A Rain Light Rain
12:15 PM 50.0 °F 48.2 °F 94% 29.76 in 8.0 mi East 11.5 mph - N/A Rain Light Rain
12:23 PM 50.0 °F 48.2 °F 94% 29.76 in 10.0 mi ENE 11.5 mph - N/A Rain Light Rain
1:00 PM 51.8 °F 48.2 °F 88% 29.76 in 12.0 mi ENE 11.5 mph - N/A Rain Light Rain
1:42 PM 51.8 °F 48.2 °F 88% 29.76 in 4.0 mi East 12.7 mph 18.4 mph N/A Rain Rain
1:51 PM 50.0 °F 48.2 °F 94% 29.76 in 4.0 mi East 13.8 mph - N/A Rain Light Rain
2:00 PM 50.0 °F 48.2 °F 94% 29.76 in 4.0 mi ENE 11.5 mph - N/A Rain Light Rain
3:00 PM 51.8 °F 48.2 °F 88% 29.77 in 4.0 mi ENE 4.6 mph - N/A Rain Light Rain
3:04 PM 50.0 °F 48.2 °F 94% 29.77 in 4.0 mi East 5.8 mph - N/A Rain Rain
3:22 PM 51.8 °F 48.2 °F 88% 29.77 in 8.0 mi East 5.8 mph - N/A Rain Light Rain
4:00 PM 51.8 °F 48.2 °F 88% 29.76 in 10.0 mi East 10.4 mph - N/A Rain Light Rain
4:42 PM 51.8 °F 48.2 °F 88% 29.76 in 15.0 mi ENE 11.5 mph - N/A   Overcast
5:00 PM 52 °F 48 °F 80% 29.77 in 15 mi NE 12.7 mph - - Rain Light Rain
5:00 PM 51.8 °F 48.2 °F 88% 29.77 in 15.0 mi ENE 12.7 mph - N/A   Overcast
6:00 PM 51.8 °F 46.4 °F 82% 29.77 in 15.0 mi ENE 11.5 mph - N/A   Overcast
7:00 PM 51.8 °F 46.4 °F 82% 29.78 in 20.0 mi East 9.2 mph - N/A   Mostly Cloudy
8:00 PM 51.8 °F 46.4 °F 82% 29.78 in 20.0 mi East 9.2 mph - N/A   Mostly Cloudy
9:00 PM 50.0 °F 46.4 °F 87% 29.81 in 20.0 mi East 13.8 mph - N/A   Overcast
10:00 PM 50.0 °F 46.4 °F 87% 29.82 in 15.0 mi East 9.2 mph - N/A   Overcast
10:40 PM 48.2 °F 46.4 °F 93% 29.83 in 15.0 mi East 8.1 mph - N/A Rain Light Rain Showers
11:00 PM 48 °F 46 °F 92% 29.84 in 6 mi East 10.4 mph - - Rain Light Rain Showers
11:00 PM 48.2 °F 46.4 °F 93% 29.83 in 6.0 mi East 10.4 mph - N/A Rain Light Rain Showers